#timestamp,LO_Frequency,Hit,StdDev 
1548867615.6,286047000.6,N
1548867635.4,286047000.5,N
1548867655.3,286047002.0,N
1548867675.1,286047002.4,N
1548867695.8,286047002.8,N
1548867715.7,286047001.9,N
1548867735.5,286047001.5,N
1548867755.4,286046999.9,N
1548867775.2,286047000.7,N
1548867795.0,286047000.1,N
1548867795.9,286047000.1,N
1548867815.8,286047002.3,N
1548867835.6,286046999.7,N
1548867855.4,286046998.3,N
1548867875.3,286046998.3,N
1548867895.1,286046999.1,N
1548867915.9,286046996.9,N
1548867935.7,286046997.6,N
1548867955.5,286046995.4,N
1548867975.4,286046995.1,N
1548867995.2,286047011.9,Y
1548868015.1,286046995.0,P
1548868016.0,286046995.0,N
1548868035.8,286046995.8,N
1548868055.6,286046996.3,N
1548868075.5,286046996.0,N
1548868095.3,286046995.0,Y
1548868115.1,286046998.3,P
1548868135.9,286046998.1,N
1548868155.7,286046998.5,N
1548868175.6,286046998.4,N
1548868195.4,286046998.1,N
1548868215.2,286047000.6,N
1548868235.1,286047002.8,N
1548868236.0,286047002.8,N
1548868255.8,286047002.8,N
1548868275.7,286047000.1,N
1548868295.5,286046999.7,N
1548868315.3,286047000.1,N
1548868335.2,286046998.6,N
1548868355.0,286046999.3,N
1548868355.9,286046999.3,N
1548868375.7,286046997.1,N
1548868395.6,286046996.5,N
1548868415.4,286046997.0,N
1548868435.3,286046997.8,N
1548868455.1,286046995.1,N
1548868456.0,286046995.1,N
1548868475.8,286046995.1,N
1548868495.7,286046995.0,N
1548868515.5,286046997.4,N
1548868535.4,286046998.0,N
1548868555.2,286046997.5,N
1548868575.0,286046994.9,N
1548868575.9,286046994.9,N
1548868595.8,286046995.2,N
1548868615.6,286046996.0,N
1548868635.4,286046995.5,N
1548868655.3,286046997.9,N
1548868675.1,286046995.0,N
1548868695.9,286046997.4,N
1548868715.7,286046997.8,N
1548868735.5,286046997.0,N
1548868755.4,286046996.6,N
1548868775.2,286046997.7,N
1548868795.0,286046998.8,N
1548868795.9,286046998.8,N
1548868815.8,286046997.7,N
1548868835.6,286046997.0,N
1548868855.5,286046994.9,Y
1548868875.3,286046998.7,P
1548868895.1,286046999.4,N
1548868915.9,286046996.9,N
1548868935.7,286046996.5,Y
1548868955.6,286047000.0,P
1548868975.4,286047002.4,N
1548868995.2,286047004.1,N
1548869015.1,286047004.0,N
1548869016.0,286047004.0,N
1548869035.8,286047002.9,N
1548869055.6,286047004.7,N
1548869075.5,286047005.3,N
1548869095.3,286047003.4,N
1548869115.2,286047003.2,N
1548869135.9,286047003.6,N
1548869155.7,286047003.9,N
1548869175.6,286047001.4,N
1548869195.4,286047002.3,N
1548869215.2,286047002.8,N
1548869235.1,286047002.7,N
1548869236.0,286047002.7,N
1548869255.8,286047000.6,N
1548869275.7,286046998.2,N
1548869295.5,286046998.6,N
1548869315.3,286046999.5,N
1548869335.2,286046998.2,N
1548869355.0,286047001.0,N
1548869355.9,286047001.0,N
1548869375.7,286047000.4,N
1548869395.6,286047000.2,N
1548869415.4,286047000.3,N
1548869435.3,286047000.2,N
1548869455.1,286047000.4,N
1548869456.0,286047000.4,N
1548869475.8,286047000.4,N
1548869495.7,286046999.9,N
1548869515.5,286047000.5,N
1548869535.4,286047002.8,N
1548869555.2,286047001.7,N
1548869575.0,286047002.4,N
1548869575.9,286047002.4,N
1548869595.8,286047000.1,N
1548869615.6,286047002.3,N
1548869635.4,286047001.5,N
1548869655.3,286047002.5,N
1548869675.1,286047000.0,N
1548869695.9,286047000.2,N
1548869715.7,286046999.7,N
1548869735.5,286047001.8,N
1548869755.4,286047002.5,N
1548869775.2,286047001.9,N
1548869795.1,286047001.6,N
1548869796.0,286047001.6,N
1548869815.8,286047001.7,N
1548869835.6,286047002.4,N
1548869855.5,286047000.5,N
1548869875.3,286047002.8,N
1548869895.2,286047004.3,Y
1548869915.9,286046998.6,P
1548869935.7,286047000.6,N
1548869955.6,286047000.9,N
1548869975.4,286046999.8,N
1548869995.2,286047002.4,N
1548870015.1,286047002.6,N
1548870016.0,286047002.6,N
1548870035.8,286047001.6,N
1548870055.7,286047003.9,Y
1548870075.5,286047002.5,P
1548870095.3,286047001.3,N
1548870115.2,286047002.0,P
1548870135.0,286047001.5,N
1548870135.9,286047001.5,N
1548870155.8,286047002.8,Y
1548870175.6,286046998.3,P
1548870195.4,286047000.4,N
1548870215.3,286047001.1,N
1548870235.1,286047000.1,N
1548870255.9,286047000.2,N
1548870275.7,286046999.9,N
1548870295.5,286047000.5,N
1548870315.4,286047000.1,N
1548870335.2,286047002.4,N
1548870355.0,286047002.8,N
1548870355.9,286047002.8,N
1548870375.8,286047000.1,N
1548870395.6,286047001.2,N
1548870415.5,286047000.6,N
1548870435.3,286047002.7,N
1548870455.1,286047002.4,N
1548870475.9,286047002.4,N
1548870495.7,286047000.1,N
1548870515.5,286047000.5,N
1548870535.4,286047002.1,N
1548870555.2,286047001.6,N
1548870575.1,286047002.6,N
1548870576.0,286047002.6,N
1548870595.8,286047004.3,Y
1548870615.6,286047004.4,P
1548870635.5,286047002.0,N
1548870655.3,286047001.9,N
1548870675.1,286047001.3,N
1548870695.9,286047004.3,Y
1548870715.7,286047002.4,P
1548870735.6,286047001.4,P
1548870755.4,286047000.2,N
1548870775.2,286047002.4,N
1548870795.1,286047000.3,N
1548870796.0,286047000.3,N
1548870815.8,286046998.5,N
1548870835.6,286046998.8,N
1548870855.5,286046999.3,N
1548870875.3,286046999.3,N
1548870895.2,286046999.3,N
1548870915.9,286046999.3,N
1548870935.7,286046999.3,N
1548870955.6,286046998.6,N
1548870975.4,286047001.2,N
1548870995.2,286047000.5,N
1548871015.1,286046998.7,N
1548871016.0,286046998.7,N
1548871035.8,286046998.8,N
1548871055.7,286047000.0,N
1548871075.5,286047000.5,N
1548871095.3,286046998.1,N
1548871115.2,286046998.9,N
1548871135.9,286046998.3,N
1548871155.7,286046999.3,N
1548871175.6,286046998.8,N
1548871195.4,286046999.3,N
